Terminal Aerodrome Forecast
Issued by NWS

Home | Current Version | Previous Version | Text Only | Print | Product List | Glossary On
Versions: 1 2 3 4 5 6 7 8 9 10 11 12 13 14 15 16 17 18 19 20 21 22 23 24 25 26 27 28 29 30 31 32 33 34 35 36 37 38 39 40 41 42 43 44 45 46 47 48 49 50
000
FTUS43 KMKX 030537
TAFENW
TAF
KENW 030537Z 0306/0406 16005KT P6SM BKN090
     FM031100 16010KT 5SM -SN BKN025 OVC040
     FM031300 15013KT 2SM -SN OVC015
     FM031500 16015G22KT 2SM -FZRAPL OVC008
     FM031800 19014G21KT 2SM -FZRAPL OVC003
     FM032300 25014KT P6SM OVC015
     FM040300 27013KT P6SM OVC035=

USA.gov is the U.S. government's official web portal to all federal, state and local government web resources and services.